When you browse on this site, cookies collect data to enhance your experience and personalize the content and advertising you see.
Visit our Privacy Policy to learn more. By continuing to use the site, you agree to this use of cookies and data.
  • In Hungary
  • List of Countries
  • For 7 days
  • Water Temperature
  • Satellite Maps
  • Weather Map
  • News
  • Weather Widgets
  • user-avatar
    Login

    Hourly Weather David

    Today, 17 June, Monday

    Time Temperature Precipitation Wind Pressure Humidity
    00:00 +26°C° 0.1 mm 0 mps 753 mmHg 90%
    01:00 +25°C° 0.1 mm 0 mps 752 mmHg 90%
    02:00 +25°C° 0.2 mm 0 mps 752 mmHg 91%
    03:00 +25°C° 0.2 mm 0 mps 752 mmHg 91%
    04:00 +25°C° 0.2 mm 0 mps 752 mmHg 91%
    05:00 +25°C° 0 mm 0 mps 752 mmHg 90%
    06:00 +26°C° 0 mm 0 mps 752 mmHg 89%
    07:00 +26°C° 0 mm 0 mps 753 mmHg 88%
    08:00 +29°C° 0 mm 1 mps 753 mmHg 82%
    09:00 +31°C° 0 mm 1 mps 753 mmHg 76%
    10:00 +32°C° 0 mm 1 mps 754 mmHg 70%
    11:00 +34°C° 0.1 mm 2 mps 753 mmHg 69%
    12:00 +34°C° 0.1 mm 2 mps 753 mmHg 68%
    13:00 +35°C° 0.1 mm 3 mps 753 mmHg 67%
    14:00 +34°C° 0.6 mm 3 mps 752 mmHg 71%
    15:00 +33°C° 0.6 mm 3 mps 752 mmHg 75%
    16:00 +33°C° 0.6 mm 3 mps 751 mmHg 79%
    17:00 +31°C° 0.3 mm 2 mps 752 mmHg 83%
    18:00 +30°C° 0.3 mm 2 mps 752 mmHg 87%
    19:00 +29°C° 0.3 mm 2 mps 752 mmHg 91%
    20:00 +29°C° 0.1 mm 1 mps 753 mmHg 91%
    21:00 +28°C° 0.1 mm 1 mps 753 mmHg 91%
    22:00 +28°C° 0.1 mm 1 mps 753 mmHg 91%
    23:00 +28°C° 0 mm 1 mps 753 mmHg 90%

    Tomorrow, 18 June, Tuesday

    Time Temperature Precipitation Wind Pressure Humidity
    00:00 +28°C° 0 mm 1 mps 753 mmHg 90%
    01:00 +27°C° 0 mm 1 mps 753 mmHg 89%
    02:00 +27°C° 0 mm 1 mps 753 mmHg 89%
    03:00 +27°C° 0 mm 1 mps 752 mmHg 88%
    04:00 +27°C° 0 mm 1 mps 752 mmHg 88%
    05:00 +27°C° 0 mm 1 mps 752 mmHg 87%
    06:00 +27°C° 0 mm 1 mps 753 mmHg 86%
    07:00 +28°C° 0 mm 1 mps 753 mmHg 85%
    08:00 +29°C° 0 mm 1 mps 753 mmHg 80%
    09:00 +31°C° 0 mm 1 mps 753 mmHg 75%
    10:00 +32°C° 0 mm 1 mps 754 mmHg 71%
    11:00 +33°C° 0 mm 1 mps 753 mmHg 68%
    12:00 +33°C° 0 mm 1 mps 753 mmHg 66%
    13:00 +35°C° 0 mm 2 mps 753 mmHg 64%
    14:00 +34°C° 0.4 mm 2 mps 752 mmHg 68%
    15:00 +34°C° 0.4 mm 3 mps 752 mmHg 73%
    16:00 +33°C° 0.4 mm 3 mps 751 mmHg 77%
    17:00 +31°C° 0.3 mm 3 mps 752 mmHg 82%
    18:00 +30°C° 0.3 mm 2 mps 752 mmHg 87%
    19:00 +29°C° 0.3 mm 2 mps 752 mmHg 92%
    20:00 +29°C° 0.4 mm 2 mps 752 mmHg 92%
    21:00 +29°C° 0.4 mm 2 mps 753 mmHg 92%
    22:00 +29°C° 0.4 mm 1 mps 753 mmHg 92%
    23:00 +28°C° 1 mm 1 mps 753 mmHg 91%

    Day after tomorrow, 19 June, Wednesday

    Time Temperature Precipitation Wind Pressure Humidity
    00:00 +28°C° 1 mm 1 mps 753 mmHg 90%
    01:00 +28°C° 1 mm 1 mps 753 mmHg 89%
    02:00 +28°C° 0.2 mm 1 mps 752 mmHg 88%
    03:00 +27°C° 0.2 mm 1 mps 752 mmHg 88%
    04:00 +27°C° 0.2 mm 1 mps 752 mmHg 87%
    05:00 +27°C° 0.3 mm 1 mps 752 mmHg 87%
    06:00 +28°C° 0.3 mm 1 mps 752 mmHg 87%
    07:00 +28°C° 0.3 mm 1 mps 752 mmHg 87%
    08:00 +29°C° 0.1 mm 1 mps 753 mmHg 82%
    09:00 +31°C° 0.1 mm 1 mps 753 mmHg 77%
    10:00 +32°C° 0.1 mm 1 mps 753 mmHg 72%
    11:00 +34°C° 0.6 mm 2 mps 753 mmHg 73%
    12:00 +34°C° 0.6 mm 2 mps 753 mmHg 73%
    13:00 +34°C° 0.6 mm 3 mps 752 mmHg 73%
    14:00 +33°C° 3.9 mm 3 mps 752 mmHg 80%
    15:00 +30°C° 3.9 mm 3 mps 751 mmHg 86%
    16:00 +29°C° 3.9 mm 3 mps 751 mmHg 93%
    17:00 +28°C° 2.3 mm 2 mps 751 mmHg 94%
    18:00 +28°C° 2.3 mm 2 mps 751 mmHg 94%
    19:00 +28°C° 2.3 mm 1 mps 751 mmHg 95%
    20:00 +28°C° 0 mm 1 mps 752 mmHg 93%
    21:00 +28°C° 0 mm 1 mps 752 mmHg 92%
    22:00 +28°C° 0 mm 1 mps 753 mmHg 90%
    23:00 +28°C° 0 mm 1 mps 753 mmHg 90%

    20 June, Thursday

    Time Temperature Precipitation Wind Pressure Humidity
    00:00 +28°C° 0 mm 1 mps 753 mmHg 90%
    01:00 +25°C° 0 mm 0 mps 752 mmHg 90%
    02:00 +27°C° 0 mm 1 mps 752 mmHg 90%
    03:00 +27°C° 0 mm 1 mps 752 mmHg 91%
    04:00 +27°C° 0 mm 1 mps 752 mmHg 91%
    05:00 +27°C° 0 mm 1 mps 752 mmHg 90%
    06:00 +27°C° 0 mm 1 mps 752 mmHg 89%
    07:00 +28°C° 0 mm 1 mps 752 mmHg 87%
    08:00 +29°C° 0.1 mm 1 mps 753 mmHg 82%
    09:00 +31°C° 0.1 mm 1 mps 753 mmHg 77%
    10:00 +32°C° 0.1 mm 1 mps 754 mmHg 72%
    11:00 +32°C° 0.8 mm 1 mps 753 mmHg 73%
    12:00 +32°C° 0.8 mm 2 mps 753 mmHg 73%
    13:00 +34°C° 0.8 mm 2 mps 752 mmHg 74%
    14:00 +32°C° 1.7 mm 2 mps 752 mmHg 78%
    15:00 +31°C° 1.7 mm 2 mps 751 mmHg 83%
    16:00 +30°C° 1.7 mm 1 mps 751 mmHg 87%
    17:00 +29°C° 1.1 mm 1 mps 751 mmHg 89%
    18:00 +29°C° 1.1 mm 1 mps 751 mmHg 91%
    19:00 +28°C° 1.1 mm 1 mps 752 mmHg 93%
    20:00 +28°C° 0.2 mm 1 mps 752 mmHg 92%
    21:00 +28°C° 0.2 mm 1 mps 753 mmHg 92%
    22:00 +28°C° 0.2 mm 1 mps 753 mmHg 91%
    23:00 +28°C° 0 mm 1 mps 753 mmHg 91%

    21 June, Friday

    Time Temperature Precipitation Wind Pressure Humidity
    00:00 +27°C° 0 mm 1 mps 753 mmHg 92%
    01:00 +27°C° 0 mm 1 mps 752 mmHg 92%
    02:00 +27°C° 0 mm 1 mps 752 mmHg 91%
    03:00 +27°C° 0 mm 1 mps 752 mmHg 91%
    04:00 +27°C° 0 mm 1 mps 751 mmHg 90%
    05:00 +27°C° 0 mm 1 mps 752 mmHg 89%
    06:00 +27°C° 0 mm 1 mps 752 mmHg 88%
    07:00 +27°C° 0 mm 1 mps 752 mmHg 87%
    08:00 +29°C° 0 mm 1 mps 753 mmHg 81%
    09:00 +31°C° 0 mm 1 mps 753 mmHg 75%
    10:00 +33°C° 0 mm 1 mps 753 mmHg 69%
    11:00 +33°C° 0.4 mm 1 mps 753 mmHg 69%
    12:00 +34°C° 0.4 mm 2 mps 753 mmHg 69%
    13:00 +35°C° 0.4 mm 2 mps 752 mmHg 69%
    14:00 +34°C° 1.1 mm 3 mps 752 mmHg 72%
    15:00 +33°C° 1.1 mm 3 mps 751 mmHg 76%
    16:00 +33°C° 1.1 mm 3 mps 751 mmHg 80%
    17:00 +31°C° 1.7 mm 2 mps 751 mmHg 83%
    18:00 +30°C° 1.7 mm 2 mps 752 mmHg 87%
    19:00 +29°C° 1.7 mm 1 mps 752 mmHg 91%
    20:00 +29°C° 0.1 mm 1 mps 752 mmHg 90%
    21:00 +28°C° 0.1 mm 1 mps 753 mmHg 90%
    22:00 +28°C° 0.1 mm 1 mps 753 mmHg 90%
    23:00 +28°C° 0 mm 1 mps 753 mmHg 90%

    22 June, Saturday

    Time Temperature Precipitation Wind Pressure Humidity
    00:00 +28°C° 0 mm 1 mps 753 mmHg 90%
    01:00 +27°C° 0 mm 1 mps 753 mmHg 90%
    02:00 +27°C° 0 mm 1 mps 753 mmHg 89%
    03:00 +27°C° 0 mm 1 mps 752 mmHg 89%
    04:00 +27°C° 0 mm 1 mps 752 mmHg 88%
    05:00 +27°C° 0 mm 1 mps 752 mmHg 87%
    06:00 +27°C° 0 mm 1 mps 753 mmHg 87%
    07:00 +28°C° 0 mm 1 mps 753 mmHg 86%
    08:00 +29°C° 0 mm 1 mps 753 mmHg 80%
    09:00 +31°C° 0 mm 1 mps 754 mmHg 75%
    10:00 +31°C° 0 mm 0 mps 754 mmHg 69%
    11:00 +33°C° 0.1 mm 1 mps 754 mmHg 68%
    12:00 +35°C° 0.1 mm 2 mps 753 mmHg 67%
    13:00 +35°C° 0.1 mm 3 mps 753 mmHg 65%
    14:00 +34°C° 1.2 mm 3 mps 752 mmHg 70%
    15:00 +34°C° 1.2 mm 3 mps 752 mmHg 75%
    16:00 +33°C° 1.2 mm 3 mps 751 mmHg 80%
    17:00 +31°C° 1.6 mm 3 mps 752 mmHg 83%
    18:00 +30°C° 1.6 mm 2 mps 752 mmHg 87%
    19:00 +29°C° 1.6 mm 2 mps 752 mmHg 91%
    20:00 +29°C° 0.1 mm 2 mps 753 mmHg 90%
    21:00 +29°C° 0.1 mm 1 mps 753 mmHg 89%
    22:00 +29°C° 0.1 mm 1 mps 753 mmHg 88%
    23:00 +28°C° 0 mm 1 mps 753 mmHg 89%
    Show more